Location: Clanezzo
(45.7500°N, 9.6000°E)
Time: 09:24:46
(UTC+00:00)

CUTE-I - Pass Details

Date: 05 December 2023
Orbit: 807 x 822 km, 98.7° (Epoch: 23 February)

Event Time Altitude Azimuth Distance (km) Brightness Sun altitude
Rises 18:21:06 0° 219° (SW) 3,316 ? -27.6°
Reaches altitude 10° 18:24:55 10° 247° (WSW) 2,394 ? -28.3°
Maximum altitude 18:27:11 13° 273° (W) 2,214 ? -28.7°
Drops below altitude 10° 18:29:27 10° 298° (WNW) 2,406 ? -29.1°
Sets 18:33:20 0° 327° (NNW) 3,348 ? -29.8°
